Tracking 30970 objects as of 3-Jul-2025
HD Live streaming from Space Station
objects crossing your sky now

FENGYUN 1C DEB

Track FENGYUN 1C DEB now!
10-day predictions


NORAD ID: 30859
Int'l Code: 1999-025AWV
Perigee: 722.9 km
Apogee: 774.6 km
Inclination: 98.9 °
Period: 99.6 minutes
Semi major axis: 7119 km
RCS: 0.0174 m2 (small)
Launch date: May 10, 1999
Source: People's Republic of China (PRC)
Launch site: Taiyaun Space Center, China (TSC)

Note: This is SATELLITE DEBRIS
Your satellite tracking list
Your tracking list is empty




NASA's NSSDC Master Catalog

Two Line Element Set (TLE):
1 30859U 99025AWV 25183.83437084  .00006662  00000-0  19015-2 0  9994
2 30859  98.9218 225.3185 0036318 153.9754 206.3272 14.45116924946799
Source of the keplerian elements: AFSPC